Location: Doverdale
(52.2833°N, 2.2000°W)
Time: 03:22:33
(UTC+00:00)

SeaSat 1 - Pass Details

Date: 29 October 2020
Orbit: 744 x 747 km, 108.0° (Epoch: 27 November)

Event Time Altitude Azimuth Distance (km) Brightness Sun altitude
Exits shadow 18:00:37 17° 91° (E) 1,855 3.8 -12.1°
Maximum altitude 18:03:33 29° 42° (NE) 1,347 3.4 -12.5°
Drops below altitude 10° 18:07:47 10° 343° (NNW) 2,277 5.1 -13.2°
Sets 18:10:17 0° 333° (NNW) 3,205 6.0 -13.6°
